FW1558 Weather Reports


time (UTC)temp
C
wind
direction
speed
KPH
gust
KPH
rain 1hr
cm
rain 24hr
cm
rain mn
cm
humidity
%
barometer
mb
20260507141559 11 265 6.4 17.7 0.00 1.45 0.00 49 1007.8
20260507140103 11 73 4.8 9.7 0.00 1.45 0.00 52 1007.5
20260507134550 10 55 4.8 14.5 0.00 1.70 0.00 58 1007.6
20260507133044 10 269 4.8 9.7 0.00 1.70 0.00 64 1007.7
20260507131539 8 74 1.6 9.7 0.00 1.70 0.00 75 1007.7
20260507130040 8 11 1.6 8.0 0.00 1.70 0.00 83 1007.8
20260507124546 6 178 0.0 3.2 0.00 1.85 0.00 91 1007.9
20260507123029 6 205 1.6 6.4 0.00 1.85 0.00 90 1007.5
20260507121525 6 261 0.0 3.2 0.00 1.85 0.00 94 1007.6
20260507120025 6 243 4.8 9.7 0.00 1.85 0.00 95 1007.6
20260507114528 6 166 1.6 4.8 0.00 1.88 0.00 95 1007.6
20260507113023 6 156 0.0 4.8 0.00 1.88 0.00 95 1007.2
20260507111523 5 190 0.0 3.2 0.00 1.88 0.00 95 1007.3
20260507110028 5 190 0.0 4.8 0.00 1.88 0.00 95 1007.3
20260507104517 5 180 1.6 6.4 0.00 1.88 0.00 95 1007.3
20260507103014 5 235 0.0 3.2 0.00 1.88 0.00 95 1007.4
20260507101512 5 235 0.0 1.6 0.00 1.88 0.00 95 1007.2
20260507100018 5 235 0.0 1.6 0.00 1.88 0.00 95 1007.1
20260507094510 5 244 0.0 3.2 0.00 1.88 0.00 95 1007.1
20260507093011 5 249 0.0 3.2 0.00 1.88 0.00 95 1007.3
20260507091507 5 250 0.0 4.8 0.00 1.88 0.00 95 1007.3
20260507090007 5 181 0.0 0.0 0.00 1.88 0.00 95 1007.6
20260507084502 5 181 0.0 0.0 0.00 1.88 0.00 94 1007.2
20260507083002 5 181 0.0 4.8 0.00 1.88 0.00 95 1007.3
20260507081559 5 163 0.0 0.0 0.00 1.88 0.00 95 1007.6
20260507080103 5 163 0.0 0.0 0.00 1.88 0.00 95 1007.5
20260507074612 5 85 0.0 0.0 0.00 1.91 0.00 94 1007.5
20260507073059 5 84 0.0 3.2 0.00 1.91 0.00 94 1007.2
20260507071557 5 84 0.0 3.2 0.00 1.91 0.00 94 1007.2
20260507070114 5 84 0.0 3.2 0.00 1.91 0.00 94 1007.0
20260507064605 5 84 0.0 3.2 0.00 1.93 0.00 94 1007.1
20260507063059 5 84 0.0 0.0 0.00 1.93 0.00 94 1007.1
20260507061554 5 84 0.0 3.2 0.00 1.93 0.00 94 1007.2
20260507060057 5 84 0.0 3.2 0.00 1.93 0.00 94 1007.3
20260507054554 5 84 0.0 3.2 0.00 2.01 0.00 94 1007.3
20260507053050 5 71 0.0 4.8 0.00 2.01 0.00 94 1007.4
20260507051549 5 67 0.0 4.8 0.00 2.01 0.00 94 1007.4
20260507050047 5 62 0.0 3.2 0.00 2.01 0.00 94 1007.7
20260507044545 5 60 1.6 4.8 0.00 2.06 0.00 94 1007.5
20260507043043 6 53 0.0 1.6 0.00 2.06 0.00 94 1007.8
20260507041541 6 53 0.0 4.8 0.00 2.06 0.00 94 1007.7
20260507040037 6 52 0.0 3.2 0.00 2.06 0.00 94 1007.8
20260507034539 6 69 0.0 4.8 0.00 2.18 2.06 94 1007.6
20260507033035 6 62 1.6 4.8 0.00 2.18 2.06 94 1007.8
20260507031535 6 62 0.0 3.2 0.00 2.18 2.06 94 1007.9
20260507030034 6 62 0.0 3.2 0.03 2.18 2.06 94 1007.7
20260507024535 7 62 1.6 3.2 0.03 2.18 2.06 94 1008.0
20260507023034 7 61 0.0 1.6 0.03 2.18 2.06 93 1008.1
20260507021532 7 61 0.0 4.8 0.08 2.18 2.06 94 1008.1
20260507020040 7 61 1.6 3.2 0.05 2.16 2.03 93 1007.9
20260507014530 7 61 0.0 1.6 0.05 2.16 2.03 93 1007.9
20260507013045 7 61 0.0 1.6 0.08 2.16 2.03 93 1008.0
20260507011529 7 61 0.0 1.6 0.03 2.11 1.98 93 1008.0
20260507010035 7 61 0.0 4.8 0.05 2.11 1.98 93 1007.7
20260507004529 7 61 0.0 1.6 0.05 2.11 1.98 93 1007.4
20260507003026 7 61 1.6 4.8 0.05 2.08 1.96 93 1007.2
20260507001529 7 47 0.0 3.2 0.08 2.08 1.96 93 1007.2
20260507000025 7 47 1.6 6.4 0.05 2.06 1.93 93 1006.6
20260506234530 7 76 1.6 8.0 0.05 2.06 1.93 93 1006.2
20260506233022 7 43 3.2 11.3 0.03 2.03 1.91 92 1006.2
20260506231526 7 84 3.2 12.9 0.03 2.01 1.88 92 1006.4
20260506230021 7 55 4.8 8.0 0.03 2.01 1.88 92 1006.3
20260506224519 7 42 3.2 14.5 0.03 2.01 1.88 92 1006.1
20260506223015 7 79 4.8 8.0 0.03 2.01 1.88 92 1006.1
20260506221514 7 49 1.6 8.0 0.00 1.98 1.85 93 1005.9
20260506220022 7 40 3.2 6.4 0.00 1.98 1.85 93 1005.9
20260506214512 7 19 1.6 8.0 0.03 1.98 1.85 93 1005.7
20260506213012 7 38 3.2 8.0 0.03 1.98 1.85 93 1005.5
20260506211516 7 5 1.6 9.7 0.05 1.98 1.85 93 1005.6
20260506210012 7 360 3.2 8.0 0.08 1.98 1.85 93 1005.6
20260506204507 7 36 1.6 8.0 0.18 1.98 1.83 93 1005.3
20260506203005 8 34 1.6 6.4 0.18 1.98 1.83 93 1005.4
20260506201503 8 29 3.2 9.7 0.20 1.96 1.80 93 1005.4
20260506200004 8 40 1.6 6.4 0.18 2.03 1.75 93 1005.4
20260506194600 8 32 3.2 9.7 0.08 1.93 1.65 92 1005.3
20260506193059 8 25 4.8 9.7 0.08 1.93 1.65 92 1005.6
20260506191559 8 69 4.8 14.5 0.03 1.88 1.60 92 1005.6
20260506190059 8 15 3.2 11.3 0.03 1.85 1.57 93 1005.4
20260506184612 8 46 3.2 11.3 0.05 1.85 1.57 93 1005.4
20260506183056 8 55 3.2 12.9 0.20 1.85 1.57 93 1005.6
20260506181555 8 29 4.8 14.5 0.30 1.85 1.57 93 1005.6
20260506180055 8 22 6.4 14.5 0.30 1.83 1.55 92 1005.8
20260506174550 8 30 4.8 8.0 0.36 1.80 1.52 92 1006.3
20260506173103 8 20 3.2 9.7 0.30 1.65 1.37 92 1006.0
20260506171551 8 69 4.8 8.0 0.23 1.55 1.27 92 1005.8
20260506170044 8 55 3.2 16.1 0.25 1.52 1.24 92 1005.7
20260506164553 8 25 4.8 17.7 0.23 1.42 1.17 92 1005.8
20260506163042 9 28 6.4 17.7 0.23 1.35 1.07 93 1005.5
20260506161536 9 56 4.8 19.3 0.25 1.32 1.04 92 1005.9
20260506160034 10 59 1.6 6.4 0.23 1.24 0.97 93 1005.7
20260506154531 9 65 3.2 8.0 0.23 1.22 0.94 92 1005.8
20260506153031 10 26 3.2 9.7 0.15 1.09 0.81 92 1006.0
20260506151527 10 51 0.0 9.7 0.15 1.07 0.79 93 1006.1
20260506150026 10 36 3.2 8.0 0.15 1.02 0.71 93 1006.1
20260506144530 10 55 3.2 8.0 0.20 0.99 0.71 93 1006.4
20260506143032 10 49 1.6 6.4 0.20 0.94 0.66 93 1006.4